Location: Congrier
(47.8099°N, 1.1170°W)
Time: 21:23:46
(UTC+00:00)

NOAA 16 DEB - Visible Passes

Search period start: 02 March 2024 00:00
Search period end: 12 March 2024 00:00
Orbit: 810 x 848 km, 98.8° (Epoch: 29 February)

Date Brightness Start Highest point End Pass type
(mag) Time Alt. Az. Time Alt. Az. Time Alt. Az.
02 Mar ? 20:34:08 11° NNE 20:34:08 11° NNE 20:34:35 10° NNE visible
02 Mar ? 22:15:40 16° N 22:15:40 16° N 22:16:46 10° N visible
03 Mar ? 21:57:11 18° N 21:57:11 18° N 21:58:32 10° N visible
04 Mar ? 21:38:42 18° N 21:38:42 18° N 21:40:12 10° N visible
04 Mar ? 23:20:14 11° NNW 23:20:14 11° NNW 23:20:30 10° NNW visible
05 Mar ? 21:20:12 17° NNE 21:20:12 17° NNE 21:21:46 10° N visible
05 Mar ? 23:01:44 14° NNW 23:01:44 14° NNW 23:02:32 10° NNW visible
06 Mar ? 21:01:42 16° NNE 21:01:42 16° NNE 21:03:14 10° N visible
06 Mar ? 22:43:14 17° NNW 22:43:14 17° NNW 22:44:27 10° NNW visible
07 Mar ? 20:43:12 13° NNE 20:43:12 13° NNE 20:44:30 10° NNE visible
07 Mar ? 22:24:44 20° NNW 22:24:44 20° NNW 22:26:18 10° NNW visible
08 Mar ? 20:24:41 11° NE 20:24:41 11° NE 20:25:19 10° NNE visible
08 Mar ? 22:06:13 21° N 22:06:13 21° N 22:08:02 10° N visible
09 Mar ? 21:47:41 22° N 21:47:41 22° N 21:49:43 10° N visible
09 Mar ? 23:29:13 13° NW 23:29:13 13° NW 23:29:47 10° NNW visible
10 Mar ? 21:29:10 21° NNE 21:29:10 21° NNE 21:31:18 10° N visible
10 Mar ? 23:10:42 16° NNW 23:10:42 16° NNW 23:11:50 10° NNW visible
11 Mar ? 21:10:38 19° NNE 21:10:38 19° NNE 21:12:47 10° N visible
11 Mar ? 22:52:09 20° NNW 22:52:09 20° NNW 22:53:46 10° NNW visible
